Orbital Elements at Epoch 2459200.5 (2020-Dec-17.0) TDB
Reference: JPL 20 (heliocentric ecliptic J2000)
Element | Value | Uncertainty (1-sigma) | Units |
e | .171679030270846 | 4.5276e-08 | |
a | 2.373642195091336 | 7.5946e-09 | au |
q | 1.966137604828093 | 1.1091e-07 | au |
i | 3.138279226195989 | 3.4096e-06 | deg |
node | 131.2693644033262 | 8.0759e-05 | deg |
peri | 274.0218594066808 | 8.1637e-05 | deg |
M | 353.2766238292978 | 1.0922e-05 | deg |
tp | 2459225.446304383400 (2021-Jan-10.94630438) | 4.0547e-05 | TDB |
period | 1335.738080097063 3.66 | 6.4106e-06 1.755e-08 | d yr |
n | .2695139154630076 | 1.2935e-09 | deg/d |
Q | 2.781146785354578 | 8.8984e-09 | au |
|
| | Orbit Determination Parameters
Additional Information
|